When you browse on this site, cookies collect data to enhance your experience and personalize the content and advertising you see.
Visit our Privacy Policy to learn more. By continuing to use the site, you agree to this use of cookies and data.
  • en Suisse
  • Liste des pays
  • À 7 jours
  • Température de l'eau
  • Carte météo
  • Widgets météo
  • user-avatar
    Se connecter

    Météo par heure à Weinheim

    Ce jour, 31 Mai, Dimanche

    Heure Température Précipitation Vent Pression Humidité
    00:00 +12°C° 0 mm 3 m/s 754 mmHg 68%
    01:00 +12°C° 0 mm 2 m/s 754 mmHg 70%
    02:00 +10°C° 0 mm 2 m/s 754 mmHg 72%
    03:00 +10°C° 0 mm 2 m/s 754 mmHg 75%
    04:00 +9°C° 0 mm 2 m/s 754 mmHg 78%
    05:00 +10°C° 0 mm 2 m/s 753 mmHg 75%
    06:00 +12°C° 0 mm 2 m/s 753 mmHg 72%
    07:00 +13°C° 0 mm 2 m/s 753 mmHg 68%
    08:00 +13°C° 0 mm 3 m/s 753 mmHg 63%
    09:00 +16°C° 0 mm 3 m/s 753 mmHg 58%
    10:00 +17°C° 0 mm 3 m/s 753 mmHg 52%
    11:00 +18°C° 0 mm 3 m/s 753 mmHg 50%
    12:00 +19°C° 0 mm 3 m/s 753 mmHg 47%
    13:00 +20°C° 0 mm 3 m/s 753 mmHg 45%
    14:00 +20°C° 0 mm 4 m/s 753 mmHg 45%
    15:00 +20°C° 0 mm 4 m/s 753 mmHg 45%
    16:00 +21°C° 0 mm 4 m/s 753 mmHg 46%
    17:00 +20°C° 0 mm 3 m/s 753 mmHg 49%
    18:00 +19°C° 0 mm 3 m/s 753 mmHg 53%
    19:00 +18°C° 0 mm 3 m/s 753 mmHg 57%
    20:00 +17°C° 0 mm 3 m/s 753 mmHg 59%
    21:00 +16°C° 0 mm 3 m/s 754 mmHg 61%
    22:00 +13°C° 0 mm 4 m/s 754 mmHg 63%
    23:00 +12°C° 0 mm 3 m/s 754 mmHg 66%

    Demain, 1 Juin, Lundi

    Heure Température Précipitation Vent Pression Humidité
    00:00 +13°C° 0 mm 2 m/s 754 mmHg 70%
    01:00 +12°C° 0 mm 2 m/s 754 mmHg 73%
    02:00 +12°C° 0 mm 2 m/s 754 mmHg 76%
    03:00 +10°C° 0 mm 2 m/s 754 mmHg 79%
    04:00 +11°C° 0 mm 1 m/s 754 mmHg 82%
    05:00 +12°C° 0 mm 2 m/s 754 mmHg 79%
    06:00 +13°C° 0 mm 2 m/s 754 mmHg 76%
    07:00 +15°C° 0 mm 2 m/s 754 mmHg 73%
    08:00 +17°C° 0 mm 3 m/s 754 mmHg 67%
    09:00 +19°C° 0 mm 3 m/s 754 mmHg 60%
    10:00 +21°C° 0 mm 4 m/s 754 mmHg 53%
    11:00 +22°C° 0 mm 4 m/s 753 mmHg 51%
    12:00 +22°C° 0 mm 4 m/s 753 mmHg 48%
    13:00 +23°C° 0 mm 4 m/s 753 mmHg 46%
    14:00 +25°C° 0 mm 4 m/s 753 mmHg 45%
    15:00 +25°C° 0 mm 4 m/s 752 mmHg 45%
    16:00 +25°C° 0 mm 4 m/s 752 mmHg 45%
    17:00 +24°C° 0 mm 3 m/s 752 mmHg 50%
    18:00 +24°C° 0 mm 3 m/s 752 mmHg 55%
    19:00 +23°C° 0 mm 2 m/s 752 mmHg 60%
    20:00 +20°C° 0 mm 3 m/s 752 mmHg 64%
    21:00 +19°C° 0 mm 3 m/s 752 mmHg 67%
    22:00 +18°C° 0 mm 4 m/s 753 mmHg 71%
    23:00 +17°C° 0 mm 3 m/s 753 mmHg 73%

    Après-demain, 2 Juin, Mardi

    Heure Température Précipitation Vent Pression Humidité
    00:00 +16°C° 0 mm 3 m/s 752 mmHg 75%
    01:00 +15°C° 0 mm 2 m/s 752 mmHg 77%
    02:00 +14°C° 0 mm 2 m/s 752 mmHg 78%
    03:00 +14°C° 0 mm 2 m/s 752 mmHg 78%
    04:00 +13°C° 0 mm 2 m/s 752 mmHg 78%
    05:00 +14°C° 0 mm 2 m/s 752 mmHg 74%
    06:00 +15°C° 0 mm 2 m/s 752 mmHg 71%
    07:00 +16°C° 0 mm 2 m/s 752 mmHg 67%
    08:00 +18°C° 0 mm 3 m/s 751 mmHg 62%
    09:00 +20°C° 0 mm 3 m/s 751 mmHg 57%
    10:00 +21°C° 0 mm 3 m/s 751 mmHg 51%
    11:00 +22°C° 0 mm 4 m/s 751 mmHg 49%
    12:00 +23°C° 0 mm 4 m/s 750 mmHg 47%
    13:00 +25°C° 0 mm 4 m/s 750 mmHg 45%
    14:00 +25°C° 0 mm 4 m/s 749 mmHg 45%
    15:00 +25°C° 0 mm 4 m/s 749 mmHg 45%
    16:00 +25°C° 0 mm 4 m/s 748 mmHg 44%
    17:00 +24°C° 0 mm 3 m/s 748 mmHg 49%
    18:00 +22°C° 0 mm 3 m/s 747 mmHg 53%
    19:00 +23°C° 0 mm 2 m/s 747 mmHg 57%
    20:00 +20°C° 0 mm 2 m/s 747 mmHg 60%
    21:00 +19°C° 0 mm 2 m/s 747 mmHg 64%
    22:00 +18°C° 0 mm 1 m/s 747 mmHg 67%
    23:00 +16°C° 0 mm 1 m/s 747 mmHg 70%

    3 Juin, Mercredi

    Heure Température Précipitation Vent Pression Humidité
    00:00 +16°C° 0 mm 1 m/s 747 mmHg 73%
    01:00 +15°C° 0 mm 1 m/s 746 mmHg 75%
    02:00 +14°C° 0 mm 1 m/s 746 mmHg 77%
    03:00 +14°C° 0 mm 1 m/s 746 mmHg 78%
    04:00 +13°C° 0 mm 1 m/s 746 mmHg 80%
    05:00 +14°C° 0 mm 1 m/s 746 mmHg 75%
    06:00 +16°C° 0 mm 1 m/s 746 mmHg 71%
    07:00 +18°C° 0 mm 1 m/s 745 mmHg 66%
    08:00 +19°C° 0 mm 2 m/s 745 mmHg 60%
    09:00 +20°C° 0 mm 2 m/s 745 mmHg 54%
    10:00 +22°C° 0 mm 3 m/s 745 mmHg 49%
    11:00 +24°C° 0 mm 3 m/s 745 mmHg 46%
    12:00 +25°C° 0 mm 3 m/s 745 mmHg 44%
    13:00 +26°C° 0 mm 3 m/s 744 mmHg 42%
    14:00 +26°C° 0 mm 3 m/s 744 mmHg 42%
    15:00 +27°C° 0 mm 3 m/s 743 mmHg 42%
    16:00 +27°C° 0 mm 3 m/s 743 mmHg 43%
    17:00 +26°C° 0 mm 3 m/s 743 mmHg 48%
    18:00 +25°C° 0 mm 2 m/s 743 mmHg 53%
    19:00 +24°C° 0 mm 2 m/s 743 mmHg 58%
    20:00 +23°C° 0 mm 2 m/s 743 mmHg 62%
    21:00 +20°C° 0 mm 2 m/s 743 mmHg 65%
    22:00 +19°C° 0 mm 1 m/s 744 mmHg 69%
    23:00 +19°C° 0 mm 1 m/s 744 mmHg 70%

    4 Juin, Jeudi

    Heure Température Précipitation Vent Pression Humidité
    00:00 +19°C° 0 mm 1 m/s 744 mmHg 71%
    01:00 +18°C° 0 mm 1 m/s 743 mmHg 73%
    02:00 +18°C° 0 mm 1 m/s 743 mmHg 74%
    03:00 +16°C° 0 mm 1 m/s 743 mmHg 76%
    04:00 +15°C° 0 mm 1 m/s 744 mmHg 78%
    05:00 +16°C° 0 mm 1 m/s 744 mmHg 75%
    06:00 +18°C° 0 mm 1 m/s 744 mmHg 71%
    07:00 +19°C° 0 mm 1 m/s 744 mmHg 68%
    08:00 +20°C° 0.1 mm 1 m/s 744 mmHg 66%
    09:00 +21°C° 0.1 mm 2 m/s 744 mmHg 64%
    10:00 +23°C° 0.1 mm 2 m/s 744 mmHg 62%
    11:00 +23°C° 0.1 mm 2 m/s 744 mmHg 61%
    12:00 +24°C° 0.1 mm 2 m/s 744 mmHg 61%
    13:00 +24°C° 0.1 mm 1 m/s 744 mmHg 60%
    14:00 +24°C° 0.3 mm 2 m/s 743 mmHg 64%
    15:00 +24°C° 0.3 mm 2 m/s 743 mmHg 67%
    16:00 +23°C° 0.3 mm 2 m/s 743 mmHg 70%
    17:00 +23°C° 0.3 mm 2 m/s 743 mmHg 71%
    18:00 +23°C° 0.3 mm 2 m/s 743 mmHg 72%
    19:00 +23°C° 0.3 mm 1 m/s 742 mmHg 74%
    20:00 +22°C° 0.2 mm 1 m/s 743 mmHg 77%
    21:00 +21°C° 0.2 mm 1 m/s 743 mmHg 80%
    22:00 +17°C° 0.2 mm 0 m/s 743 mmHg 83%
    23:00 +17°C° 0.1 mm 0 m/s 743 mmHg 84%

    5 Juin, Vendredi

    Heure Température Précipitation Vent Pression Humidité
    00:00 +17°C° 0.1 mm 0 m/s 743 mmHg 85%
    01:00 +16°C° 0.1 mm 0 m/s 743 mmHg 86%
    02:00 +16°C° 0 mm 0 m/s 743 mmHg 87%
    03:00 +16°C° 0 mm 0 m/s 742 mmHg 88%
    04:00 +15°C° 0 mm 0 m/s 742 mmHg 89%
    05:00 +18°C° 0 mm 1 m/s 742 mmHg 87%
    06:00 +19°C° 0 mm 1 m/s 742 mmHg 85%
    07:00 +20°C° 0 mm 1 m/s 742 mmHg 83%
    08:00 +22°C° 0 mm 1 m/s 742 mmHg 76%
    09:00 +24°C° 0 mm 2 m/s 742 mmHg 69%
    10:00 +25°C° 0 mm 2 m/s 742 mmHg 62%
    11:00 +26°C° 0.2 mm 2 m/s 741 mmHg 61%
    12:00 +27°C° 0.2 mm 3 m/s 741 mmHg 59%
    13:00 +28°C° 0.2 mm 3 m/s 741 mmHg 58%
    14:00 +27°C° 0.7 mm 3 m/s 741 mmHg 62%
    15:00 +26°C° 0.7 mm 3 m/s 741 mmHg 66%
    16:00 +26°C° 0.7 mm 3 m/s 740 mmHg 70%
    17:00 +25°C° 0.2 mm 3 m/s 741 mmHg 73%
    18:00 +24°C° 0.2 mm 2 m/s 741 mmHg 76%
    19:00 +22°C° 0.2 mm 1 m/s 741 mmHg 79%
    20:00 +22°C° 0 mm 1 m/s 741 mmHg 81%
    21:00 +21°C° 0 mm 1 m/s 741 mmHg 83%
    22:00 +20°C° 0 mm 1 m/s 742 mmHg 85%
    23:00 +20°C° 0 mm 1 m/s 742 mmHg 86%
    Voir plus